Weather History for Firenze / Peretola, Italy

Change the Weather History Date:

Friday, September 13, 2013

  Actual Average Record
Temperature  
Mean Temperature 68 °F -  
Max Temperature 78 °F 76 °F - ()
Min Temperature 57 °F 55 °F - ()
Cooling Degree Days 2    
Growing Degree Days 18 (Base 50)    
Moisture  
Dew Point 55 °F    
Average Humidity 67    
Maximum Humidity 100    
Minimum Humidity 39    
Precipitation  
Precipitation 0.00 in 0.11 in - ()
Sea Level Pressure  
Sea Level Pressure 30.04 in    
Wind  
Wind Speed 4 mph ()    
Max Wind Speed 9 mph    
Max Gust Speed -    
Visibility 6.2 miles    
Events      
T = Trace of Precipitation, MM = Missing Value Source: Averaged Metar Reports

Daily Weather History Graph

Daily Weather History Graph

Search for Another Location

Airport:

Trip Planner

Search our weather history database for the weather conditions in past years. The results will help you decide how hot, cold, wet, or windy it might be!

Date:

Astronomy

Sep. 13, 2013 Rise Set
Actual Time 6:52 AM CEST 7:29 PM CEST
Civil Twilight 6:23 AM CEST 7:58 PM CEST
Nautical Twilight 5:48 AM CEST 8:32 PM CEST
Astronomical Twilight 5:13 AM CEST 9:07 PM CEST
Moon 3:12 PM CEST (9/13) No Moon Set
Length of Visible Light 13h 34m
Length of Day
12h 37m
First Quarter, 58% of the Moon is Illuminated
Sep 13
First Quarter
Sep 19
Full
Sep 27
Last Quarter
Oct 5
New
Oct 12
First Quarter

Hourly Weather History & Observations

Time (CEST) Temp. Dew Point Humidity Pressure Visibility Wind Dir Wind Speed Gust Speed Precip Events Conditions
12:20 AM 60.8 °F 55.4 °F 82% 29.98 in 6.2 mi East 5.8 mph - N/A   Partly Cloudy
12:50 AM 60.8 °F 55.4 °F 82% 29.98 in 6.2 mi ESE 3.5 mph - N/A   Partly Cloudy
1:20 AM 62.6 °F 57.2 °F 82% 29.98 in 6.2 mi East 4.6 mph - N/A   Partly Cloudy
1:50 AM 60.8 °F 57.2 °F 88% 29.98 in 6.2 mi ENE 4.6 mph - N/A   Scattered Clouds
2:20 AM 62.6 °F 57.2 °F 82% 29.98 in 6.2 mi NE 3.5 mph - N/A   Scattered Clouds
2:50 AM 62.6 °F 57.2 °F 82% 30.01 in 6.2 mi Variable 1.2 mph - N/A   Mostly Cloudy
3:20 AM 60.8 °F 57.2 °F 88% 30.01 in 6.2 mi Variable 2.3 mph - N/A   Partly Cloudy
3:50 AM 59.0 °F 55.4 °F 88% 30.01 in 6.2 mi Variable 1.2 mph - N/A   Partly Cloudy
4:20 AM 60.8 °F 57.2 °F 88% 30.01 in 6.2 mi Variable 2.3 mph - N/A   Partly Cloudy
4:50 AM 57.2 °F 55.4 °F 94% 30.01 in 6.2 mi Calm Calm - N/A   Partly Cloudy
5:20 AM 57.2 °F 55.4 °F 94% 30.01 in 6.2 mi Calm Calm - N/A   Scattered Clouds
5:50 AM 57.2 °F 55.4 °F 94% 30.01 in 6.2 mi Calm Calm - N/A   Scattered Clouds
6:20 AM 57.2 °F 57.2 °F 100% 30.01 in 6.2 mi NW 1.2 mph - N/A   Mostly Cloudy
6:50 AM 59.0 °F 55.4 °F 88% 30.01 in 6.2 mi Calm Calm - N/A   Partly Cloudy
7:20 AM 59.0 °F 55.4 °F 88% 30.04 in - SSW 2.3 mph - N/A   Clear
7:50 AM 59.0 °F 57.2 °F 94% 30.04 in - Variable 2.3 mph - N/A   Clear
8:20 AM 60.8 °F 57.2 °F 88% 30.04 in - Variable 2.3 mph - N/A   Clear
8:50 AM 62.6 °F 57.2 °F 82% 30.04 in - Variable 2.3 mph - N/A   Clear
9:20 AM 64.4 °F 57.2 °F 77% 30.06 in - Variable 1.2 mph - N/A   Clear
9:50 AM 66.2 °F 57.2 °F 73% 30.06 in - Variable 1.2 mph - N/A   Clear
10:20 AM 68.0 °F 57.2 °F 68% 30.06 in - Variable 3.5 mph - N/A   Clear
10:50 AM 69.8 °F 57.2 °F 64% 30.06 in - Variable 2.3 mph - N/A   Clear
11:20 AM 71.6 °F 59.0 °F 64% 30.06 in 6.2 mi Variable 3.5 mph - N/A   Partly Cloudy
11:50 AM 71.6 °F 57.2 °F 60% 30.06 in 6.2 mi West 4.6 mph - N/A   Partly Cloudy
12:20 PM 73.4 °F 53.6 °F 50% 30.06 in 6.2 mi Variable 3.5 mph - N/A   Partly Cloudy
12:50 PM 75.2 °F 55.4 °F 50% 30.06 in 6.2 mi West 5.8 mph - N/A   Partly Cloudy
1:20 PM 77.0 °F 55.4 °F 47% 30.06 in 6.2 mi Variable 4.6 mph - N/A   Partly Cloudy
1:50 PM 77.0 °F 55.4 °F 47% 30.04 in 6.2 mi Variable 4.6 mph - N/A   Scattered Clouds
2:20 PM 78.8 °F 55.4 °F 44% 30.04 in 6.2 mi WSW 8.1 mph - N/A   Scattered Clouds
2:50 PM 78.8 °F 53.6 °F 42% 30.04 in 6.2 mi West 6.9 mph - N/A   Partly Cloudy
3:20 PM 77.0 °F 53.6 °F 44% 30.04 in 6.2 mi WNW 6.9 mph - N/A   Partly Cloudy
3:50 PM 77.0 °F 53.6 °F 44% 30.04 in 6.2 mi WNW 6.9 mph - N/A   Partly Cloudy
4:20 PM 77.0 °F 55.4 °F 47% 30.04 in 6.2 mi West 9.2 mph - N/A   Partly Cloudy
4:50 PM 77.0 °F 55.4 °F 47% 30.04 in 6.2 mi WSW 8.1 mph - N/A   Partly Cloudy
5:20 PM 78.8 °F 51.8 °F 39% 30.04 in 6.2 mi West 8.1 mph - N/A   Partly Cloudy
5:50 PM 77.0 °F 51.8 °F 41% 30.04 in 6.2 mi WSW 9.2 mph - N/A   Partly Cloudy
6:20 PM 77.0 °F 51.8 °F 41% 30.04 in 6.2 mi West 9.2 mph - N/A   Partly Cloudy
6:50 PM 73.4 °F 51.8 °F 47% 30.04 in 6.2 mi WNW 9.2 mph - N/A   Partly Cloudy
7:20 PM 71.6 °F 50.0 °F 46% 30.06 in - WNW 6.9 mph - N/A   Clear
7:50 PM 69.8 °F 50.0 °F 49% 30.06 in - NW 4.6 mph - N/A   Clear
8:20 PM 69.8 °F 50.0 °F 49% 30.06 in - NW 3.5 mph - N/A   Clear
8:50 PM 69.8 °F 51.8 °F 53% 30.09 in - Variable 3.5 mph - N/A   Clear
9:20 PM 68.0 °F 53.6 °F 60% 30.09 in - Variable 1.2 mph - N/A   Clear
9:50 PM 66.2 °F 55.4 °F 68% 30.09 in - SSW 2.3 mph - N/A   Clear
10:20 PM 62.6 °F 51.8 °F 68% 30.09 in - East 4.6 mph - N/A   Clear
10:50 PM 62.6 °F 53.6 °F 72% 30.12 in - East 5.8 mph - N/A   Clear
11:20 PM 60.8 °F 53.6 °F 77% 30.12 in - East 4.6 mph - N/A   Clear
11:50 PM 60.8 °F 53.6 °F 77% 30.12 in - East 5.8 mph - N/A   Clear